Location: Veytaux
(46.4185°N, 6.9320°E)
Time: 08:12:34
(UTC+00:00)

USA 308 - Pass Details

Date: 27 May 2022
Orbit: 549 x 558 km, 54.0° (Epoch: 14 June)

Event Time Altitude Azimuth Distance (km) Brightness Sun altitude
Exits shadow 02:12:34 - 276° (W) 2,320 5.7 -12.9°
Reaches altitude 10° 02:13:52 10° 282° (WNW) 1,844 5.2 -12.8°
Maximum altitude 02:17:41 33° 347° (NNW) 955 4.4 -12.4°
Drops below altitude 10° 02:21:31 10° 53° (NE) 1,853 6.9 -11.9°
Sets 02:23:57 0° 63° (ENE) 2,751 7.8 -11.7°
